EST,Max TemperatureF,Mean TemperatureF,Min TemperatureF,Max Dew PointF,MeanDew PointF,Min DewpointF,Max Humidity, Mean Humidity, Min Humidity, Max Sea Level PressureIn, Mean Sea Level PressureIn, Min Sea Level PressureIn, Max VisibilityMiles, Mean VisibilityMiles, Min VisibilityMiles, Max Wind SpeedMPH, Mean Wind SpeedMPH, Max Gust SpeedMPH,PrecipitationIn, CloudCover, Events, WindDirDegrees
2012-11-1,39,36,33,35,32,27,97,85,65,29.80,29.69,29.62,10,8,3,14,8,23,0.04,8,Rain-Snow,311
2012-11-2,37,33,30,29,27,25,87,80,67,30.12,29.94,29.75,10,8,1,14,7,24,0.01,8,Snow,336
2012-11-3,32,30,28,28,25,23,93,83,72,30.24,30.18,30.08,10,8,2,7,3,,0.00,8,Snow,16
2012-11-4,39,32,28,27,24,23,82,74,60,30.25,30.22,30.16,10,10,10,8,3,,0.00,6,,348
2012-11-5,30,26,21,27,21,17,89,75,59,30.28,30.22,30.11,10,10,9,7,4,,0.00,6,,40
2012-11-6,37,31,25,25,23,20,81,70,59,30.17,30.06,29.99,10,10,10,13,7,,0.00,8,,165
2012-11-7,39,34,28,28,26,24,88,75,60,30.19,30.12,30.04,10,10,10,8,4,,0.00,5,,125
2012-11-8,43,34,26,34,31,24,92,79,68,30.20,30.13,30.05,10,9,8,14,5,,0.00,7,,212
2012-11-9,45,42,39,39,38,34,93,85,80,30.16,30.11,30.06,10,6,4,13,6,,0.00,8,Rain,250
2012-11-10,48,44,41,46,42,37,100,93,81,30.16,30.05,29.91,9,3,1,16,7,24,0.29,7,Rain,123
2012-11-11,64,56,48,51,47,44,90,71,58,29.94,29.86,29.76,10,10,9,25,11,38,0.02,4,Rain,187
2012-11-12,53,38,24,51,31,19,100,87,69,30.14,29.91,29.75,10,7,0,24,15,34,0.11,8,Fog-Rain-Snow,247
2012-11-13,30,26,23,25,21,18,89,81,74,30.52,30.33,30.10,10,8,0,16,11,29,0.01,6,Fog-Snow,236
2012-11-14,36,28,21,27,22,17,82,76,67,30.56,30.49,30.41,10,10,10,12,7,,0.00,4,,181
2012-11-15,45,38,30,30,27,23,82,72,53,30.41,30.35,30.29,10,10,7,10,8,,0.00,3,,205
2012-11-16,43,36,30,36,26,14,100,75,32,30.52,30.44,30.31,10,8,3,6,2,,0.00,3,,333
2012-11-17,46,39,32,36,32,27,100,88,56,30.58,30.53,30.48,10,4,0,13,6,,0.00,3,Fog,187
2012-11-18,52,41,30,34,30,27,92,69,38,30.53,30.48,30.41,10,8,4,14,7,,0.00,0,,172
2012-11-19,51,40,30,34,32,29,96,73,50,30.39,30.28,30.16,10,8,3,9,6,,0.00,3,,181
2012-11-20,50,46,41,41,39,34,93,79,66,30.17,30.13,30.07,10,8,5,7,2,,0.00,7,Rain,225
2012-11-21,51,46,42,43,41,37,100,84,68,30.20,30.13,30.01,10,7,3,15,6,23,0.00,5,,213
2012-11-22,62,54,45,46,38,34,76,58,38,30.00,29.83,29.59,10,10,8,22,14,32,0.00,2,,204
2012-11-23,54,40,26,47,26,21,93,83,72,29.94,29.69,29.51,10,3,0,26,17,43,0.14,8,Fog-Snow,284
2012-11-24,26,25,24,25,21,16,93,83,66,30.08,29.97,29.89,10,5,0,13,7,23,0.10,8,Fog-Snow,302
2012-11-25,28,26,23,27,22,18,96,85,74,29.95,29.81,29.70,10,6,1,14,9,23,0.04,8,Snow,236
2012-11-26,26,24,21,21,20,16,96,85,69,30.29,30.12,29.95,10,4,1,9,5,,0.04,8,Snow,279
2012-11-27,28,24,19,19,17,15,100,80,61,30.30,30.23,30.11,10,10,5,17,6,20,0.00,6,Snow,227
2012-11-28,28,24,21,27,20,15,93,79,63,30.24,30.15,30.03,10,7,2,15,9,25,0.01,7,Snow,258
2012-11-29,34,26,19,27,23,19,100,86,73,30.30,30.20,30.13,10,8,0,12,5,,0.00,5,Fog-Snow,28
2012-11-30,28,26,23,29,23,21,100,91,85,30.35,30.29,30.23,10,5,1,10,6,17,0.02,8,Snow,76